EW7448 Weather Reports


Display with metric or nautical units.
time (UTC)temp
F
wind
direction
speed
MPH
gust
MPH
rain 1hr
in
rain 24hr
in
rain mn
in
humidity
%
barometer
mb
20260902234556 82 56 0.0 3.0 0.00 0.01 0.01 91 1012.1
20260902233054 83 48 0.0 1.0 0.00 0.01 0.01 89 1011.9
20260902231553 83 176 0.0 3.0 0.00 0.01 0.01 88 1011.7
20260902230055 84 127 0.0 2.0 0.00 0.01 0.01 86 1011.5
20260902224552 84 44 2.0 5.0 0.00 0.01 0.01 83 1011.5
20260902223051 85 189 0.0 3.0 0.00 0.01 0.01 83 1011.5
20260902221552 86 117 0.0 4.0 0.00 0.01 0.01 82 1011.5
20260902220050 87 32 0.0 4.0 0.00 0.01 0.01 80 1011.7
20260902214553 87 169 0.0 1.0 0.00 0.01 0.01 78 1011.8
20260902213048 87 57 0.0 4.0 0.00 0.01 0.01 81 1011.7
20260902211606 88 85 0.0 4.0 0.00 0.01 0.01 79 1011.5
20260902210111 89 49 0.0 4.0 0.00 0.01 0.01 79 1011.6
20260902204545 88 2 1.0 5.0 0.00 0.01 0.01 80 1011.7
20260902203044 87 47 0.0 5.0 0.00 0.01 0.01 82 1011.9
20260902201550 87 158 0.0 6.0 0.00 0.01 0.01 82 1011.8
20260902200041 88 87 2.0 6.0 0.00 0.01 0.01 82 1011.9
20260902194539 88 50 0.0 4.0 0.00 0.01 0.01 83 1012.0
20260902193039 88 122 0.0 3.0 0.00 0.01 0.01 83 1012.2
20260902191542 87 49 1.0 4.0 0.00 0.01 0.01 85 1012.5
20260902190040 85 171 0.0 2.0 0.00 0.01 0.01 87 1012.7
20260902184536 85 139 0.0 2.0 0.00 0.01 0.01 88 1012.7
20260902183035 85 148 0.0 2.0 0.00 0.01 0.01 87 1012.8
20260902181538 85 160 0.0 2.0 0.00 0.01 0.01 87 1012.9
20260902180036 86 25 1.0 6.0 0.00 0.01 0.01 86 1013.0
20260902174534 85 75 0.0 3.0 0.00 0.01 0.01 87 1013.1
20260902173034 86 42 0.0 3.0 0.00 0.01 0.01 85 1013.2
20260902171533 86 46 1.0 5.0 0.00 0.01 0.01 85 1013.3
20260902170034 86 65 0.0 3.0 0.00 0.01 0.01 86 1013.4
20260902164532 86 34 0.0 3.0 0.00 0.01 0.01 87 1013.6
20260902163032 87 83 0.0 4.0 0.00 0.01 0.01 86 1013.9
20260902161530 86 155 0.0 2.0 0.00 0.01 0.01 86 1014.0
20260902160034 86 39 0.0 4.0 0.00 0.01 0.01 85 1014.1
20260902154529 87 48 0.0 4.0 0.00 0.01 0.01 85 1014.4
20260902153038 88 23 0.0 3.0 0.00 0.01 0.01 81 1014.2
20260902151525 87 43 0.0 3.0 0.00 0.01 0.01 83 1014.0
20260902150021 86 355 0.0 1.0 0.00 0.01 0.01 87 1014.0
20260902144528 86 350 0.0 1.0 0.00 0.01 0.01 87 1014.1
20260902143015 85 351 0.0 1.0 0.00 0.01 0.01 89 1014.1
20260902141510 84 351 0.0 0.0 0.00 0.01 0.01 91 1014.1
20260902140006 83 351 0.0 1.0 0.00 0.01 0.01 94 1014.1
20260902134503 81 349 0.0 0.0 0.00 0.01 0.01 96 1013.9
20260902133059 80 349 0.0 1.0 0.00 0.01 0.01 97 1013.9
20260902131557 80 349 0.0 0.0 0.00 0.01 0.01 98 1014.0
20260902124551 78 348 0.0 0.0 0.00 0.01 0.01 98 1013.9
20260902123052 77 349 0.0 0.0 0.01 0.01 0.01 99 1013.8
20260902121546 77 348 0.0 1.0 0.01 0.01 0.01 99 1013.6
20260902120048 77 349 0.0 0.0 0.01 0.01 0.01 99 1013.4
20260902114548 76 349 0.0 0.0 0.01 0.01 0.01 99 1013.4
20260902113051 76 349 0.0 0.0 0.00 0.00 0.00 99 1013.4
20260902111546 76 349 0.0 0.0 0.00 0.00 0.00 99 1013.1
20260902110041 76 349 0.0 0.0 0.00 0.00 0.00 99 1013.0
20260902104543 76 349 0.0 1.0 0.00 0.00 0.00 99 1013.0
20260902103040 76 349 0.0 0.0 0.00 0.00 0.00 99 1012.8
20260902101539 76 349 0.0 0.0 0.00 0.00 0.00 99 1012.6
20260902100039 76 349 0.0 0.0 0.00 0.00 0.00 98 1012.7
20260902094538 76 314 0.0 1.0 0.00 0.00 0.00 99 1012.6
20260902093039 76 359 0.0 0.0 0.00 0.00 0.00 98 1012.6
20260902091547 76 358 0.0 0.0 0.00 0.00 0.00 99 1012.8
20260902090037 76 358 0.0 0.0 0.00 0.00 0.00 98 1012.6
20260902084536 76 358 0.0 1.0 0.00 0.00 0.00 98 1012.5
20260902083035 76 358 0.0 0.0 0.00 0.00 0.00 98 1012.2
20260902081533 76 359 0.0 0.0 0.00 0.00 0.00 98 1012.5
20260902080033 76 358 0.0 0.0 0.00 0.00 0.00 98 1012.4
20260902074534 76 358 0.0 0.0 0.00 0.00 0.00 98 1012.5
20260902073034 77 358 0.0 0.0 0.00 0.00 0.00 98 1012.5
20260902071530 77 358 0.0 0.0 0.00 0.00 0.00 98 1012.6
20260902070029 76 358 0.0 0.0 0.00 0.00 0.00 98 1012.5
20260902064528 77 358 0.0 1.0 0.00 0.00 0.00 98 1012.7
20260902063006 77 308 0.0 0.0 0.00 0.00 0.00 98 1012.6
20260902061509 76 309 0.0 0.0 0.00 0.00 0.00 98 1012.8
20260902060004 76 308 0.0 0.0 0.00 0.00 0.00 98 1012.8
20260902054502 77 309 0.0 0.0 0.00 0.00 0.00 98 1013.0
20260902053003 77 47 0.0 0.0 0.00 0.00 0.00 98 1012.9
20260902051501 77 47 0.0 0.0 0.00 0.00 0.00 98 1013.1
20260902050100 77 46 0.0 0.0 0.00 0.00 0.00 97 1013.1
20260902044557 77 47 0.0 0.0 0.00 0.00 0.00 97 1013.1
20260902043058 77 47 0.0 0.0 0.00 0.00 0.00 97 1013.1
20260902041555 77 47 0.0 0.0 0.00 0.00 0.00 97 1013.2
20260902040054 77 46 0.0 0.0 0.00 0.00 0.00 97 1013.2
20260902034601 77 46 0.0 1.0 0.00 0.00 0.00 97 1013.5
20260902033105 77 47 0.0 0.0 0.00 0.00 0.00 97 1013.6
20260902031556 77 47 0.0 0.0 0.00 0.00 0.00 97 1013.7
20260902030052 77 47 0.0 0.0 0.00 0.00 0.00 96 1013.9
20260902024556 77 46 0.0 1.0 0.00 0.00 0.00 96 1014.0
20260902023051 77 47 0.0 0.0 0.00 0.00 0.00 96 1014.0
20260902021603 77 46 0.0 0.0 0.00 0.00 0.00 96 1014.0
20260902020050 77 47 0.0 0.0 0.00 0.00 0.00 96 1013.9
20260902014551 77 47 0.0 0.0 0.00 0.00 0.00 95 1013.8
20260902013050 78 47 0.0 0.0 0.00 0.00 0.00 95 1013.6
20260902011549 78 47 0.0 0.0 0.00 0.00 0.00 95 1013.5
20260902010051 79 46 0.0 1.0 0.00 0.00 0.00 95 1013.4
20260902004548 79 47 0.0 1.0 0.00 0.00 0.00 94 1013.2
20260902003048 80 51 0.0 3.0 0.00 0.00 0.00 94 1013.4
20260902001548 82 49 0.0 3.0 0.00 0.00 0.00 91 1013.4
20260902000047 82 33 0.0 2.0 0.00 0.00 0.00 93 1013.4